OPS 4682 DEB, 38429

Orbit data source: Space-Track

OPS 4682 DEB, 38429 is space debris in LEO originally from a launch on Sat, 03 Apr 1965 UTC launched from the Air Force Western Test Range (AFWTR). Debris objects in space refer to the collection of defunct objects orbiting the Earth. Examples of debris include non-operational satellites, rocket bodies, and fragments generated from explosions, collisions, or faulty payload assembly.

Loading next visibility...
Identifier
38429, 1965-027EJ
Orbit
LEO
Country
Flag of USUS
Related business
Manufacturer
Unknown
Mission
Spacecraft
Bus & Motor
Unknown
Mass
Unknown
Launch date (UTC)
1965-04-03 (61 years ago)
Launch vehicle
Unknown
Launch site
Air Force Western Test Range (AFWTR)
Object type
Payload
Rocket body
Debris
Shape & HBR
Unknown shape, 0.1 m
Radar Cross Section
Small (<0.1 m²)

Expand to show TLE details & history
Last TLE update: 4 days ago

TLE from 4 days ago
0 OPS 4682 DEB
1 38429U 65027EJ  26032.17656548  .00000377  00000-0  12613-2 0  9993
2 38429  90.2365 357.7933 0042364  32.8154 327.5585 12.97933503571776
Epoch: 2026-02-01T04:14Z
TLE epoch observation values (Epoch: 2026-02-01T04:14:15.257Z)
Latitude
-0°
Longitude
162.83977°
Altitude
1,245.764 km
Speed
7.245 km/s
True Right ascension
23h 51m 10s
True Declination
0° 00' 00"
Sunlit
Object was in daylight at epoch
Visualization orbit readout
Latitude
Unknown
Longitude
Unknown
Altitude
Unknown
Speed
Unknown
Apparent Right ascension
Unknown
Apparent Declination
Unknown
Sunlit
N/A
Visualization observer readout
Local Sidereal Time
07:15:07
Azimuth
Unknown
Elevation
Unknown
Doppler factor
Unknown
Orbital elements
Apogee altitude
1,299.713 km
Perigee altitude
1,234.935 km
Semi-major axis
7,645.461 km
Eccentricity
0.00424
Inclination
90.2365°
RAAN
357.7933°
Arg. of periapsis
32.8154°
True anomaly
327.29692°
Mean anomaly
327.5585°
Eccentric anomaly
327.42782°
Mean motion
3.24667 °/min
Orbital period
110.88 mins
BSTAR
0.0012613
Loading maneuver chart data...
Computing Atmospheric mass density...
Loading historical data...
Loading historical data...
Loading historical data...
Loading historical data...
Loading historical data...
Loading historical data...
Loading historical data...

Documentation

Showing up to 5 results
|